Find OneWeb SL0300

NORAD ID: 49089 Int'l Des: 2021-075 Owner: ONEWEBN Country: UK Constellation: oneweb operational
LEOCIRCULARPOLARONEWEB_TYPE

現在のビュー

3D地球を読み込み中...

About OneWeb SL0300

OneWeb SL0300 (NORAD 49089) is a oneweb constellation satellite launched Aug 21, 2021 by ONEWEBN of UK. It operates in LEO, CIRCULAR, POLAR, ONEWEB_TYPE orbit with a mass of 148.00 kg.

OneWeb SL0300について

説明を読み込み中...

次回通過

Passes for default location (London). Set your location on the main map for personalized predictions.

高度履歴

Loading altitude history...

軌道要素

1 49089U 21075Q 26169.01915064 .00000256 00000-0 67642-3 0 9996
2 49089 87.8948 350.4911 0001798 78.2406 281.8924 13.12445669235310
Epoch: Jun 18, 2026 • Age: 12 hours

現在のステータス

高度 1235.2 km
速度 7.24 km/s
衛星直下点 -52.14°S, 77.08°E
打ち上げ日 Aug 21, 2021
運用期間 4.8 years
タイプ internet

技術仕様

分類 Payload
質量 148.00 kg
乾燥質量 140.00 kg
総質量 148.00 kg
長さ 1.30 m
直径 1.00 m
スパン 5.00 m
形状 Trapezoid+2 pan
製造者 ONEWUS
バスタイプ ARROW
フェーズステータス In Orbit
所有者/国 ONEWEBN/UK

Most Searched